[[{"header":{"parameterUnit":"m.s-1","parameterCategory":1,"la1":30.2991,"la2":30.254,"lo1":-89.0895,"lo2":-89.0444,"dy":0.0017,"dx":0.0017,"nx":28,"ny":28,"refTime":"2024-03-30T03:00:00:Z","depth":0,"parameterNumber":2,"parameterNumberName":"U-component_of_WINDS"},"data":[0,0,0,0,0,0,0,0,0,0,0,0,0,0,0,0,0,0,0,0,0,0,0,0,0,0,0,0,0,0,0,0,0,0,0,0,0,0,0,0,0,0,0,0,0,0,0,0,0,0,0,0,0,0,0,0,0,0,-2.5301,-2.5302,0,-2.542,-2.5421,-2.5423,-2.5467,-2.5466,-2.5466,-2.5465,-2.5586,-2.5589,-2.5593,0,0,0,0,0,0,0,0,0,0,0,0,0,-2.511,-2.5113,-2.5301,-2.5302,-2.5304,-2.542,-2.5421,-2.5423,-2.5467,-2.5466,-2.5466,-2.5465,-2.5584,-2.5589,-2.5593,0,0,0,0,0,0,0,0,0,0,0,0,0,-2.5207,-2.5114,-2.53,-2.5339,-2.5344,-2.5419,-2.5421,-2.5423,-2.5467,-2.5466,-2.5466,-2.5465,-2.5583,-2.5588,-2.5594,-2.5638,0,0,-2.561,-2.5612,0,0,0,0,0,0,0,0,-2.5201,-2.5214,-2.5332,-2.5337,-2.5342,-2.5428,-2.5398,-2.5495,-2.5467,-2.542,-2.5465,-2.5465,-2.5533,-2.5543,-2.5566,-2.5644,-2.5649,-2.561,-2.5614,-2.5616,-2.5617,0,0,0,0,0,0,0,-2.5195,-2.5209,-2.5348,-2.5334,-2.534,-2.5351,-2.5364,-2.5417,-2.5479,-2.5424,-2.5428,-2.5441,-2.5536,-2.5561,-2.557,-2.5651,-2.561,-2.5615,-2.5618,-2.562,-2.5772,-2.5772,0,0,0,0,0,0,-2.5182,-2.5203,-2.5344,-2.5351,-2.5269,-2.5355,-2.5369,-2.5401,-2.5478,-2.5489,-2.5442,-2.5443,-2.5552,-2.5563,-2.5574,-2.5632,-2.5616,-2.5621,-2.5624,-2.5771,-2.5772,-2.5773,0,0,0,0,0,0,-2.5177,-2.5194,-2.5339,-2.5278,-2.5298,-2.5359,-2.5394,-2.5404,-2.5429,-2.5491,-2.5502,-2.5456,-2.5552,-2.5566,-2.5622,-2.5636,-2.5623,-2.5628,-2.577,-2.5771,-2.5772,-2.5747,0,0,0,0,0,0,-2.5172,-2.5192,-2.521,-2.5278,-2.5301,-2.5386,-2.5395,-2.5406,-2.5438,-2.5441,-2.5508,-2.5518,-2.5553,-2.5614,-2.5628,-2.5644,-2.5632,-2.5769,-2.5771,-2.5772,-2.5747,-2.5747,-2.5748,0,0,0,0,0,-2.5165,-2.5197,-2.521,-2.5227,-2.5324,-2.5386,-2.5399,-2.5439,-2.5439,-2.5457,-2.5498,-2.5516,-2.5633,-2.5619,-2.5635,-2.5653,-2.5768,-2.577,-2.5772,-2.5747,-2.5747,-2.5748,0,0,0,0,0,0,-2.5127,-2.5207,-2.5222,-2.5278,-2.5325,-2.5394,-2.5418,-2.5438,-2.5485,-2.5486,-2.5533,-2.5548,-2.56,-2.5632,-2.5616,-2.5701,-2.5702,-2.5707,-2.5677,-2.5678,-2.5679,-2.5669,-2.5637,0,0,0,0,0,-2.5126,-2.517,-2.5237,-2.528,-2.5303,-2.5356,-2.5385,-2.5411,-2.5462,-2.5482,-2.5526,-2.5574,-2.5622,-2.5652,-2.5699,-2.5752,-2.5767,-2.5772,-2.5773,-2.5773,-2.5776,-2.5807,-2.581,-2.5779,-2.5779,-2.5779,0,0,-2.5122,-2.5171,-2.5196,-2.5273,-2.5313,-2.5358,-2.5372,-2.5419,-2.5452,-2.5489,-2.5544,-2.5579,-2.5635,-2.569,-2.5716,-2.5718,-2.5788,-2.5775,-2.5774,-2.5778,-2.5809,-2.5812,-2.5814,-2.578,-2.578,-2.578,0,0,-2.5139,-2.5181,-2.5221,-2.5261,-2.5322,-2.5357,-2.5367,-2.5433,-2.5457,-2.5514,-2.5543,-2.5583,-2.5664,-2.5703,-2.5734,-2.5767,-2.5786,-2.5781,-2.5783,-2.5812,-2.5815,-2.5817,-2.5829,-2.5833,-2.5785,-2.5785,-2.5785,0,-2.5127,-2.5196,-2.5239,-2.5285,-2.5318,-2.5354,-2.5395,-2.5432,-2.5504,-2.5526,-2.5528,-2.5631,-2.5672,-2.5736,-2.5744,-2.5768,-2.578,-2.5773,-2.5811,-2.5814,-2.5817,-2.5828,-2.5833,-2.5784,-2.5784,-2.5784,-2.5784,0,-2.5178,-2.5226,-2.5251,-2.5321,-2.5357,-2.54,-2.545,-2.5481,-2.5505,-2.554,-2.5598,-2.5648,-2.5707,-2.5724,-2.5748,-2.5793,-2.5792,-2.5802,-2.5804,-2.5818,-2.583,-2.5835,-2.5782,-2.5783,-2.5783,-2.5783,0,0,-2.5174,-2.5268,-2.5277,-2.5309,-2.5379,-2.5416,-2.5461,-2.5519,-2.5545,-2.5594,-2.5633,-2.5701,-2.5711,-2.5746,-2.5774,-2.58,-2.5824,-2.5807,-2.5809,-2.5808,-2.5876,-2.5868,-2.5872,-2.5837,-2.5838,-2.5839,-2.5871,0,-2.5199,-2.5281,-2.5322,-2.5386,-2.5431,-2.5467,-2.5506,-2.5553,-2.5587,-2.563,-2.5668,-2.5716,-2.5725,-2.5746,-2.5774,-2.5815,-2.5838,-2.5813,-2.5873,-2.5874,-2.5857,-2.5878,-2.587,-2.5897,-2.5876,-2.5877,-2.5878,0,-2.524,-2.529,-2.5358,-2.5424,-2.5444,-2.5478,-2.5535,-2.5575,-2.563,-2.5653,-2.5693,-2.5721,-2.5769,-2.5769,-2.5836,-2.5819,-2.5846,-2.587,-2.5872,-2.5878,-2.5876,-2.5885,-2.5907,-2.5911,-2.5885,-2.5885,-2.5884,0,-2.5229,-2.5313,-2.5365,-2.5392,-2.547,-2.5493,-2.5527,-2.5581,-2.5613,-2.5663,-2.5685,-2.5739,-2.5769,-2.581,-2.5852,-2.5848,-2.5916,-2.5919,-2.5936,-2.5935,-2.5948,-2.5946,-2.5974,-2.5966,-2.5966,-2.5966,-2.5966,0,-2.5253,-2.5294,-2.5362,-2.5394,-2.544,-2.5487,-2.5532,-2.5568,-2.5616,-2.5656,-2.569,-2.5726,-2.5781,-2.5824,-2.5857,-2.5908,-2.5921,-2.5941,-2.5949,-2.5938,-2.5935,-2.5955,-2.5954,-2.5967,-2.5967,-2.5967,-2.5967,0,-2.5248,-2.5296,-2.5355,-2.5424,-2.5443,-2.5474,-2.5533,-2.5566,-2.5603,-2.5652,-2.5667,-2.5724,-2.5777,-2.5824,-2.5893,-2.5916,-2.5968,-2.5978,-2.5949,-2.5954,-2.5968,-2.5966,-2.601,-2.6018,-2.6005,-2.6005,-2.6005,0,-2.526,-2.5292,-2.5365,-2.5395,-2.5428,-2.5474,-2.5508,-2.5556,-2.559,-2.5655,-2.5679,-2.5735,-2.5781,-2.5864,-2.5912,-2.5965,-2.5977,-2.5989,-2.5985,-2.5973,-2.5977,-2.5974,-2.5977,-2.5988,-2.5988,-2.5988,-2.5988,0,-2.5276,-2.5298,-2.5345,-2.5401,-2.5441,-2.5487,-2.5534,-2.5556,-2.5613,-2.5649,-2.5704,-2.574,-2.5812,-2.5866,-2.5925,-2.596,-2.5983,-2.5989,-2.5996,-2.5984,-2.5965,-2.5975,-2.5948,-2.5987,-2.5987,-2.5987,-2.5987,-2.5987,-2.528,-2.531,-2.5367,-2.5418,-2.5459,-2.5503,-2.5537,-2.5579,-2.5625,-2.5687,-2.5713,-2.5769,-2.5823,-2.5905,-2.594,-2.5984,-2.5988,-2.5998,-2.6,-2.6002,-2.5999,-2.5959,-2.5995,-2.5995,-2.5995,-2.5995,-2.5995,0,-2.5297,-2.5336,-2.5383,-2.5448,-2.5489,-2.5509,-2.5562,-2.5595,-2.5644,-2.5693,-2.5739,-2.5802,-2.5855,-2.5908,-2.5964,-2.5989,-2.6001,-2.6002,-2.6,-2.6008,-2.5993,-2.5981,-2.5991,-2.5991,-2.5991,-2.5991,-2.5991,-2.5991,-2.5311,-2.5363,-2.5392,-2.5466,-2.5504,-2.5559,-2.5588,-2.5628,-2.5668,-2.5737,-2.5782,-2.5816,-2.5867,-2.5927,-2.5977,-2.5991,-2.601,-2.6008,-2.6025,-2.6009,-2.6009,-2.6009,-2.5998,-2.6012,-2.6012,-2.6037,-2.6037,-2.6037]},{"header":{"parameterUnit":"m.s-1","parameterCategory":1,"la1":30.2991,"la2":30.254,"lo1":-89.0895,"lo2":-89.0444,"dy":0.0017,"dx":0.0017,"nx":28,"ny":28,"refTime":"2024-03-30T03:00:00:Z","depth":0,"parameterNumber":3,"parameterNumberName":"V-component_of_WINDS"},"data":[0,0,0,0,0,0,0,0,0,0,0,0,0,0,0,0,0,0,0,0,0,0,0,0,0,0,0,0,0,0,0,0,0,0,0,0,0,0,0,0,0,0,0,0,0,0,0,0,0,0,0,0,0,0,0,0,0,0,3.379,3.379,0,3.3847,3.3848,3.3848,3.3874,3.3874,3.3874,3.3873,3.3929,3.393,3.3932,0,0,0,0,0,0,0,0,0,0,0,0,0,3.37,3.3702,3.379,3.379,3.3791,3.3847,3.3848,3.3848,3.3874,3.3874,3.3873,3.3873,3.3928,3.393,3.3932,0,0,0,0,0,0,0,0,0,0,0,0,0,3.3746,3.3702,3.3789,3.381,3.3813,3.3847,3.3848,3.3849,3.3874,3.3874,3.3873,3.3873,3.3928,3.393,3.3932,3.3948,0,0,3.3939,3.394,0,0,0,0,0,0,0,0,3.3744,3.3749,3.3807,3.3809,3.3812,3.3853,3.3836,3.3882,3.3874,3.385,3.3873,3.3873,3.3903,3.3908,3.3918,3.3951,3.3953,3.3939,3.3941,3.3942,3.3942,0,0,0,0,0,0,0,3.374,3.3747,3.3812,3.3807,3.3811,3.3816,3.3823,3.3845,3.3877,3.3852,3.3854,3.3861,3.3905,3.3916,3.392,3.3954,3.3939,3.3941,3.3943,3.3944,3.4004,3.4005,0,0,0,0,0,0,3.3734,3.3744,3.381,3.3814,3.3777,3.3818,3.3825,3.384,3.3876,3.3882,3.3861,3.3862,3.3912,3.3917,3.3922,3.3945,3.3942,3.3944,3.3945,3.4004,3.4005,3.4005,0,0,0,0,0,0,3.3732,3.374,3.3808,3.378,3.3789,3.382,3.3836,3.3841,3.3853,3.3883,3.3889,3.3867,3.3912,3.3919,3.3942,3.3947,3.3945,3.3947,3.4004,3.4004,3.4005,3.3989,0,0,0,0,0,0,3.3729,3.3739,3.3746,3.378,3.379,3.3828,3.3836,3.3842,3.3857,3.3859,3.389,3.3895,3.3913,3.3939,3.3944,3.395,3.3949,3.4004,3.4004,3.4005,3.399,3.3989,3.3989,0,0,0,0,0,3.3726,3.3738,3.3746,3.3754,3.3799,3.3828,3.3834,3.3855,3.3857,3.3864,3.3884,3.3894,3.3946,3.3941,3.3948,3.3954,3.4003,3.4004,3.4004,3.399,3.3989,3.3989,0,0,0,0,0,0,3.3701,3.3742,3.3752,3.3775,3.3798,3.3832,3.3841,3.3853,3.3875,3.3876,3.39,3.3907,3.3928,3.3943,3.3937,3.3973,3.3975,3.3977,3.3962,3.3962,3.3961,3.3957,3.3951,0,0,0,0,0,3.3699,3.3719,3.3754,3.3771,3.3782,3.381,3.3823,3.3838,3.3862,3.3871,3.3893,3.3915,3.3937,3.395,3.3971,3.3992,3.4,3.4,3.4,3.3999,3.4001,3.4015,3.4015,3.4007,3.4007,3.4007,0,0,3.3693,3.3718,3.3729,3.3767,3.3786,3.3807,3.3818,3.3838,3.3854,3.3874,3.3898,3.3915,3.3941,3.3964,3.3975,3.3978,3.4005,3.4,3.3999,3.4001,3.4015,3.4016,3.4017,3.4007,3.4007,3.4007,0,0,3.3694,3.3715,3.3732,3.3752,3.3783,3.3801,3.3806,3.3839,3.3851,3.3876,3.3892,3.3911,3.3946,3.3966,3.398,3.3991,3.4001,3.3997,3.3995,3.4008,3.4009,3.4009,3.4014,3.4016,3.3998,3.3998,3.3998,0,3.3683,3.3715,3.3739,3.376,3.3776,3.3798,3.3816,3.3834,3.3868,3.3879,3.3881,3.3929,3.3948,3.3976,3.3979,3.399,3.3996,3.3993,3.4007,3.4008,3.4009,3.4014,3.4016,3.3997,3.3997,3.3997,3.3997,0,3.3701,3.3723,3.3734,3.3769,3.3787,3.3806,3.3833,3.3847,3.3861,3.3879,3.3905,3.3929,3.3957,3.3965,3.3977,3.3996,3.3996,3.4002,3.4006,3.4009,3.4014,3.4016,3.3996,3.3996,3.3997,3.3997,0,0,3.3686,3.3737,3.374,3.3758,3.3794,3.3811,3.3832,3.386,3.3873,3.3897,3.3915,3.3946,3.3953,3.3969,3.3984,3.3996,3.4004,3.4001,3.4002,3.4001,3.4028,3.4023,3.4025,3.4012,3.4012,3.4013,3.4026,0,3.3692,3.3732,3.3755,3.3784,3.3806,3.3827,3.3846,3.3869,3.3888,3.3908,3.3928,3.395,3.3957,3.3967,3.398,3.4001,3.401,3.4,3.4029,3.403,3.4022,3.4028,3.4023,3.4034,3.4028,3.4028,3.4029,0,3.3705,3.3731,3.3763,3.3799,3.3808,3.3824,3.3854,3.3873,3.3901,3.3913,3.3933,3.3949,3.3971,3.3973,3.4005,3.3998,3.4011,3.4023,3.4024,3.4028,3.4029,3.4032,3.4038,3.404,3.4032,3.4031,3.4031,0,3.3692,3.3735,3.376,3.3774,3.3816,3.3827,3.3845,3.3873,3.3889,3.3915,3.3926,3.3952,3.3967,3.3988,3.401,3.4009,3.404,3.4044,3.4052,3.4051,3.4057,3.4056,3.4066,3.4065,3.4065,3.4065,3.4065,0,3.3697,3.3716,3.3755,3.3771,3.3793,3.382,3.3841,3.386,3.3886,3.3905,3.3925,3.3943,3.3972,3.3993,3.4011,3.4035,3.4041,3.4052,3.4057,3.4051,3.405,3.406,3.406,3.4065,3.4065,3.4065,3.4065,0,3.3686,3.3714,3.3743,3.3781,3.3792,3.3806,3.3839,3.3855,3.3875,3.39,3.3907,3.3939,3.3965,3.399,3.4024,3.4037,3.4062,3.4067,3.4053,3.4055,3.4062,3.4062,3.4079,3.4083,3.4078,3.4078,3.4078,0,3.3688,3.3704,3.3745,3.376,3.3778,3.3802,3.382,3.3847,3.3865,3.3899,3.3911,3.394,3.3964,3.4005,3.4031,3.4058,3.4064,3.4069,3.4068,3.4063,3.4066,3.4065,3.4067,3.4068,3.4068,3.4068,3.4068,0,3.3688,3.3702,3.3727,3.3758,3.3779,3.3804,3.3829,3.384,3.3872,3.3891,3.392,3.3939,3.3976,3.4004,3.4034,3.4052,3.4066,3.4068,3.4072,3.4066,3.4057,3.4063,3.4052,3.4067,3.4067,3.4068,3.4068,3.4068,3.3684,3.37,3.3732,3.376,3.3783,3.3807,3.3825,3.3848,3.3873,3.3906,3.3921,3.395,3.3979,3.4022,3.404,3.4063,3.4065,3.407,3.4071,3.4072,3.4072,3.4054,3.4068,3.4068,3.4068,3.4068,3.4068,0,3.3687,3.3709,3.3735,3.3771,3.3794,3.3806,3.3836,3.3853,3.3879,3.3906,3.393,3.3964,3.3992,3.402,3.405,3.4063,3.407,3.407,3.4069,3.4074,3.4067,3.4062,3.4064,3.4064,3.4064,3.4064,3.4064,3.4064,3.369,3.3718,3.3736,3.3775,3.3797,3.3827,3.3843,3.3866,3.3888,3.3925,3.3949,3.3968,3.3996,3.4028,3.4055,3.4063,3.4073,3.4071,3.408,3.4074,3.4074,3.4074,3.4069,3.4073,3.4073,3.4086,3.4086,3.4086]}]]